Weather History for Boulder City, NV

Change the Weather History Date:

Monday, November 7, 2011

  Actual Average (KLAS) Record (KLAS)
Temperature  
Mean Temperature 47 °F 60 °F  
Max Temperature 57 °F 71 °F 84 °F (2007)
Min Temperature 37 °F 50 °F 23 °F (1938)
Degree Days  
Heating Degree Days 18 6  
Month to date heating degree days 33  
Since 1 July heating degree days 72  
Cooling Degree Days 0 1  
Month to date cooling degree days 8  
Year to date cooling degree days 3564  
Moisture  
Dew Point 28 °F    
Average Humidity 51    
Maximum Humidity 93    
Minimum Humidity 23    
Precipitation  
Precipitation 0.00 in 0.01 in 0.61 in (2004)
Month to date precipitation 0.08  
Year to date precipitation 3.41  
Snow  
Snow 0.00 in 0.00 in 0.00 in ()
Month to date snowfall 0.0  
Since 1 July snowfall 0.0  
Since 1 September snowfall 0.0  
Snow Depth -    
Sea Level Pressure  
Sea Level Pressure 30.05 in    
Wind  
Wind Speed 7 mph (NNW)    
Max Wind Speed 18 mph    
Max Gust Speed 23 mph    
Visibility 9 miles    
Events      
T = Trace of Precipitation, MM = Missing Value Source: NWS Daily Summary

Daily Weather History Graph

Daily Weather History Graph

Search for Another Location

Airport:

Trip Planner

Search our weather history database for the weather conditions in past years. The results will help you decide how hot, cold, wet, or windy it might be!

Date:

Astronomy

Nov. 07, 2011 Rise Set
Actual Time 6:07 AM PST 4:38 PM PST
Civil Twilight 5:40 AM PST 5:04 PM PST
Nautical Twilight 5:10 AM PST 5:35 PM PST
Astronomical Twilight 4:40 AM PST 6:05 PM PST
Moon 2:48 PM PST (11/7) 3:18 AM PST (11/7)
Length of Visible Light 11h 24m
Length of Day
10h 30m
Waxing Gibbous, 92% of the Moon is Illuminated
Nov 7
Waxing Gibbous
Nov 10
Full
Nov 18
Last Quarter
Nov 24
New
Dec 2
First Quarter

Hourly Weather History & Observations

Time (PST) Temp. Windchill Dew Point Humidity Pressure Visibility Wind Dir Wind Speed Gust Speed Precip Events Conditions
12:15 AM 42.8 °F - 35.6 °F 76% 29.99 in 10.0 mi Calm Calm - N/A   Overcast
12:35 AM 41.0 °F - 37.4 °F 87% 29.99 in 10.0 mi Calm Calm - N/A   Overcast
12:55 AM 41.0 °F - 37.4 °F 87% 29.99 in 10.0 mi Calm Calm - N/A   Mostly Cloudy
1:15 AM 41.0 °F 37.1 °F 37.4 °F 87% 29.99 in 10.0 mi North 5.8 mph - N/A   Partly Cloudy
1:35 AM 41.0 °F 35.2 °F 37.4 °F 87% 29.99 in 10.0 mi North 9.2 mph - N/A   Partly Cloudy
1:55 AM 41.0 °F 37.1 °F 37.4 °F 87% 29.99 in 10.0 mi NNW 5.8 mph - N/A   Clear
2:15 AM 41.0 °F 36.4 °F 37.4 °F 87% 29.99 in 10.0 mi NW 6.9 mph - N/A   Clear
2:35 AM 41.0 °F 36.4 °F 37.4 °F 87% 29.98 in 10.0 mi NW 6.9 mph - N/A   Mostly Cloudy
2:55 AM 42.8 °F 38.0 °F 37.4 °F 81% 29.98 in 10.0 mi WNW 8.1 mph - N/A   Mostly Cloudy
3:15 AM 44.6 °F 41.4 °F 37.4 °F 76% 29.99 in 10.0 mi NW 5.8 mph - N/A   Mostly Cloudy
3:35 AM 37.4 °F 33.8 °F 35.6 °F 93% 29.99 in 10.0 mi NW 4.6 mph - N/A   Partly Cloudy
3:55 AM 42.8 °F 38.6 °F 33.8 °F 70% 29.99 in 10.0 mi WNW 6.9 mph - N/A   Scattered Clouds
4:15 AM 41.0 °F 39.0 °F 32.0 °F 70% 29.99 in 10.0 mi West 3.5 mph - N/A   Scattered Clouds
4:35 AM 41.0 °F - 32.0 °F 70% 29.99 in 10.0 mi Calm Calm - N/A   Clear
4:55 AM 39.2 °F 35.9 °F 32.0 °F 75% 30.00 in 10.0 mi NW 4.6 mph - N/A   Clear
5:15 AM 39.2 °F 33.6 °F 32.0 °F 75% 30.00 in 10.0 mi NNW 8.1 mph - N/A   Clear
5:35 AM 41.0 °F 34.3 °F 32.0 °F 70% 30.00 in 10.0 mi NNW 11.5 mph - N/A   Clear
5:55 AM 41.0 °F 34.3 °F 32.0 °F 70% 30.01 in 10.0 mi NNW 11.5 mph 16.1 mph N/A   Clear
6:15 AM 41.0 °F 33.9 °F 32.0 °F 70% 30.02 in 10.0 mi North 12.7 mph - N/A   Clear
6:35 AM 42.8 °F 37.0 °F 30.2 °F 61% 30.02 in 10.0 mi North 10.4 mph - N/A   Clear
6:55 AM 42.8 °F 36.2 °F 30.2 °F 61% 30.04 in 10.0 mi NNW 12.7 mph - N/A   Clear
7:15 AM 42.8 °F 38.0 °F 32.0 °F 66% 30.05 in 10.0 mi North 8.1 mph - N/A   Clear
7:35 AM 44.6 °F 40.2 °F 32.0 °F 61% 30.06 in 9.0 mi North 8.1 mph - N/A   Clear
7:55 AM 46.4 °F 41.9 °F 30.2 °F 53% 30.06 in 10.0 mi North 9.2 mph - N/A   Clear
8:15 AM 46.4 °F 42.9 °F 30.2 °F 53% 30.06 in 10.0 mi North 6.9 mph - N/A   Clear
8:35 AM 46.4 °F 42.4 °F 30.2 °F 53% 30.06 in 10.0 mi NNW 8.1 mph - N/A   Clear
8:55 AM 48.2 °F - 28.4 °F 46% 30.06 in 5.0 mi NNW 18.4 mph - N/A   Haze
9:35 AM 50.0 °F - 28.4 °F 43% 30.07 in 6.0 mi NNW 12.7 mph 19.6 mph N/A   Haze
9:55 AM 51.8 °F - 26.6 °F 38% 30.07 in 5.0 mi NW 12.7 mph 18.4 mph N/A   Haze
10:15 AM 51.8 °F - 26.6 °F 38% 30.07 in 10.0 mi NW 13.8 mph - N/A   Clear
10:35 AM 53.6 °F - 26.6 °F 35% 30.07 in 10.0 mi North 13.8 mph - N/A   Clear
10:55 AM 53.6 °F - 26.6 °F 35% 30.07 in 9.0 mi NW 9.2 mph - N/A   Clear
11:15 AM 53.6 °F - 24.8 °F 33% 30.06 in 10.0 mi North 16.1 mph 19.6 mph N/A   Clear
11:35 AM 53.6 °F - 24.8 °F 33% 30.05 in 10.0 mi North 11.5 mph 20.7 mph N/A   Clear
12:15 PM 55.4 °F - 23.0 °F 29% 30.05 in 10.0 mi North 11.5 mph 20.7 mph N/A   Clear
12:35 PM 55.4 °F - 23.0 °F 29% 30.04 in 10.0 mi NW 12.7 mph 16.1 mph N/A   Partly Cloudy
12:55 PM 55.4 °F - 23.0 °F 29% 30.05 in 10.0 mi North 15.0 mph 19.6 mph N/A   Partly Cloudy
1:15 PM 55.4 °F - 21.2 °F 26% 30.05 in 8.0 mi NW 11.5 mph - N/A   Clear
1:35 PM 57.2 °F - 21.2 °F 25% 30.05 in 10.0 mi NNW 10.4 mph 23.0 mph N/A   Clear
1:55 PM 57.2 °F - 21.2 °F 25% 30.05 in 10.0 mi North 13.8 mph 18.4 mph N/A   Clear
2:15 PM 57.2 °F - 21.2 °F 25% 30.06 in 10.0 mi NNW 11.5 mph - N/A   Clear
2:35 PM 55.4 °F - 21.2 °F 26% 30.06 in 9.0 mi NNW 10.4 mph - N/A   Clear
2:55 PM 55.4 °F - 21.2 °F 26% 30.06 in 10.0 mi NE 12.7 mph 18.4 mph N/A   Partly Cloudy
3:15 PM 57.2 °F - 19.4 °F 23% 30.07 in 7.0 mi North 13.8 mph - N/A   Clear
3:35 PM 55.4 °F - 19.4 °F 25% 30.07 in 3.0 mi NNE 10.4 mph - N/A   Haze
3:55 PM 55.4 °F - 19.4 °F 25% 30.08 in 7.0 mi North 10.4 mph - N/A   Clear
4:15 PM 55.4 °F - 19.4 °F 25% 30.08 in 8.0 mi North 10.4 mph - N/A   Clear
4:35 PM 53.6 °F - 21.2 °F 28% 30.09 in 10.0 mi NNE 6.9 mph - N/A   Clear
4:55 PM 53.6 °F - 21.2 °F 28% 30.10 in 9.0 mi NNE 4.6 mph - N/A   Clear
5:15 PM 51.8 °F - 23.0 °F 33% 30.11 in 10.0 mi NNE 5.8 mph - N/A   Clear
5:35 PM 50.0 °F - 24.8 °F 37% 30.11 in 9.0 mi North 6.9 mph - N/A   Clear
5:55 PM 50.0 °F - 24.8 °F 37% 30.12 in 10.0 mi NNE 6.9 mph - N/A   Clear
6:15 PM 50.0 °F - 24.8 °F 37% 30.12 in 10.0 mi NNE 5.8 mph - N/A   Partly Cloudy
6:35 PM 50.0 °F - 23.0 °F 35% 30.13 in 10.0 mi NNE 6.9 mph - N/A   Clear
6:55 PM 50.0 °F - 23.0 °F 35% 30.13 in 10.0 mi NNE 9.2 mph - N/A   Clear
7:15 PM 50.0 °F - 24.8 °F 37% 30.14 in 10.0 mi NNE 8.1 mph - N/A   Clear
7:35 PM 50.0 °F - 24.8 °F 37% 30.15 in 10.0 mi NNE 9.2 mph - N/A   Clear
7:55 PM 50.0 °F - 24.8 °F 37% 30.15 in 10.0 mi NNE 5.8 mph - N/A   Clear
8:15 PM 48.2 °F - 24.8 °F 40% 30.16 in 10.0 mi NNE 6.9 mph - N/A   Clear
8:35 PM 48.2 °F - 23.0 °F 37% 30.16 in 10.0 mi North 6.9 mph - N/A   Clear
8:55 PM 48.2 °F - 23.0 °F 37% 30.17 in 10.0 mi North 8.1 mph - N/A   Clear
9:15 PM 48.2 °F - 23.0 °F 37% 30.17 in 10.0 mi NW 9.2 mph - N/A   Clear
9:35 PM 48.2 °F - 23.0 °F 37% 30.18 in 10.0 mi NW 9.2 mph - N/A   Clear
9:55 PM 48.2 °F - 23.0 °F 37% 30.18 in 10.0 mi NNW 10.4 mph - N/A   Clear
10:15 PM 46.4 °F 41.9 °F 21.2 °F 37% 30.18 in 10.0 mi NNW 9.2 mph - N/A   Clear
10:35 PM 46.4 °F 42.4 °F 23.0 °F 40% 30.18 in 10.0 mi NNW 8.1 mph - N/A   Clear
10:55 PM 46.4 °F 41.9 °F 21.2 °F 37% 30.19 in 10.0 mi NW 9.2 mph - N/A   Clear
11:15 PM 44.6 °F 39.2 °F 21.2 °F 39% 30.19 in 10.0 mi NW 10.4 mph - N/A   Clear
11:35 PM 44.6 °F 40.2 °F 21.2 °F 39% 30.20 in 10.0 mi NNW 8.1 mph - N/A   Clear
11:55 PM 44.6 °F 39.2 °F 21.2 °F 39% 30.20 in 10.0 mi NNW 10.4 mph - N/A   Clear